CDT,Max TemperatureF,Mean TemperatureF,Min TemperatureF,Max Dew PointF,MeanDew PointF,Min DewpointF,Max Humidity, Mean Humidity, Min Humidity, Max Sea Level PressureIn, Mean Sea Level PressureIn, Min Sea Level PressureIn, Max VisibilityMiles, Mean VisibilityMiles, Min VisibilityMiles, Max Wind SpeedMPH, Mean Wind SpeedMPH, Max Gust SpeedMPH,PrecipitationIn, CloudCover, Events, WindDirDegrees
2013-3-1,31,28,24,27,21,18,85,72,58,30.35,30.27,30.20,10,10,10,17,10,33,0.00,8,,343
2013-3-2,36,28,19,22,18,15,84,70,56,30.40,30.33,30.20,10,10,8,10,5,30,0.00,2,,349
2013-3-3,54,41,27,37,29,21,81,64,46,30.19,29.95,29.70,10,10,10,20,11,24,0.00,0,,150
2013-3-4,62,50,37,43,35,30,79,65,51,29.98,29.71,29.61,10,10,8,22,11,32,T,1,Rain,55
2013-3-5,43,36,28,34,23,16,85,64,43,30.39,30.23,30.03,10,10,9,31,16,40,0.01,2,Rain,322
2013-3-6,43,33,22,26,21,17,81,62,43,30.46,30.38,30.25,10,10,10,14,6,18,0.00,0,,52
2013-3-7,63,46,28,30,27,23,85,55,25,30.27,30.18,30.09,10,10,10,23,12,30,0.00,0,,135
2013-3-8,64,53,41,45,38,30,67,57,47,30.17,30.10,29.97,10,10,6,25,14,38,0.00,5,,147
2013-3-9,63,57,51,56,49,37,93,72,51,29.96,29.74,29.62,10,8,2,29,16,35,0.40,7,Rain-Thunderstorm,172
2013-3-10,53,41,28,51,36,21,100,86,72,29.99,29.76,29.58,10,8,2,25,15,35,0.01,7,,298
2013-3-11,46,36,26,22,19,15,81,56,31,30.06,29.99,29.95,10,10,10,18,10,38,T,4,,304
2013-3-12,53,39,25,29,24,17,75,53,30,30.37,30.22,30.04,10,10,10,26,8,35,0.00,3,,320
2013-3-13,50,35,19,25,21,18,84,59,34,30.51,30.42,30.33,10,10,10,12,5,24,0.00,1,,197
2013-3-14,76,55,33,42,33,23,83,54,25,30.31,30.17,30.07,10,10,10,18,9,31,0.00,0,,205
2013-3-15,78,60,41,47,43,37,86,58,30,30.08,29.87,29.70,10,10,9,20,10,31,0.00,0,,188
2013-3-16,59,50,40,45,38,31,83,67,51,29.97,29.88,29.70,10,9,5,24,14,32,T,2,,32
2013-3-17,40,38,35,36,34,30,100,93,85,29.99,29.88,29.73,10,7,1,26,11,33,0.36,8,Rain-Thunderstorm,53
2013-3-18,58,47,36,36,31,21,92,59,25,30.06,29.90,29.76,10,9,4,21,9,29,T,4,,331
2013-3-19,51,38,24,33,24,16,92,63,33,30.29,30.20,30.06,10,10,10,17,6,23,T,2,,63
2013-3-20,45,37,28,34,20,12,96,62,27,30.43,30.30,30.13,10,9,4,18,9,24,0.00,2,,4
2013-3-21,37,35,33,30,24,12,89,62,35,30.10,29.92,29.83,10,9,5,22,13,35,0.02,7,Rain,101
2013-3-22,39,36,32,33,31,30,92,89,85,29.99,29.93,29.87,10,8,5,14,7,17,0.00,8,,49
2013-3-23,37,35,33,36,34,32,100,96,92,29.99,29.90,29.78,9,3,0,22,11,26,0.27,8,Fog-Rain-Snow,44
2013-3-24,33,27,21,32,26,17,100,80,59,30.17,29.91,29.76,10,4,0,28,14,36,0.27,6,Fog-Rain-Snow,339
2013-3-25,33,27,20,23,19,15,78,67,56,30.39,30.26,30.15,10,10,10,23,13,29,T,5,Snow,312
2013-3-26,39,28,17,26,21,15,88,69,50,30.48,30.39,30.32,10,10,10,9,4,,0.00,0,,339
2013-3-27,58,44,30,36,29,24,78,59,40,30.31,30.22,30.14,10,10,10,21,10,26,0.00,4,,129
2013-3-28,67,52,36,52,40,30,86,67,48,30.19,30.15,30.09,10,10,7,14,6,20,0.04,3,Rain,133
2013-3-29,68,60,52,54,52,49,93,76,58,30.18,30.13,30.07,10,10,10,15,8,18,0.02,5,Rain,106
2013-3-30,72,61,49,57,53,48,100,79,57,30.06,29.95,29.84,10,7,0,18,8,23,0.51,4,Fog-Rain-Thunderstorm,172
2013-3-31,68,56,43,52,44,37,100,67,34,29.99,29.96,29.91,10,8,0,30,7,40,0.08,2,Fog-Rain-Thunderstorm,316